COSMOS 2251 DEB

Satellite information

Favourite Embed

Satellite Type and Status

DEBRISIN ORBIT

Key statistics

Satellite COSMOS 2251 DEB at a glance.

Uptime

11821

Days in orbit

Revolutions

≈ 14.6

Per day

Orbit

LEO

Low Earth Orbit

Inclination

73.9

Latest

Satellite identification and parameters

Extended collection of information and parameters for COSMOS 2251 DEB.

Object identification

Identified? True

Debris? True

Object name: COSMOS 2251 DEB

International designator: 1993-036AVW

Object number (NORAD): 35980

Object ID (CCSDS): 35980

Country: COMMONWEALTH OF INDEPENDENT STATES (CIS)

Current information (Y/N): Y

RCS size: SMALL

Orbital parameters

Period: 98.738 minutes

Inclination: 73.9133 deg

SMA: 7076.48 km

Apoapsis: 736.424 km

Periapsis: 660.265 km

RAAN: 216.122 deg

Eccentricy: 0.00538116

Argument of periapsis: 357.8755 deg

Mean anomaly: 2.2171 deg

Mean motion: 14.58400725 rev/day

Mean motion (dot): 0.00010101 rev/day2

B* drag term: 0.0021398051 1/REarth

Two-line elements (TLE)

Creation date: Oct. 25, 2025, 10:45 a.m.

Reference frame: TEME

Reference center: EARTH

Epoch: Oct. 25, 2025, 1:11 a.m. UTC

TLE line 0: 0 COSMOS 2251 DEB

TLE line 1: 1 35980U 93036AVW 25298.04968516 .00010101 00000-0 21398-2 0 9999

TLE line 2: 2 35980 73.9133 216.1220 0053812 357.8755 2.2171 14.58400725607761

Live tracking on map

Real-time ground track for satellite COSMOS 2251 DEB.

In-orbit conjunctions

A list of the most updated potential collisions computed for object COSMOS 2251 DEB.

Target Orbit TCA Probability of collision Miss distance Type
FENGYUN 1C DEB SSO 2025-06-25 17:45:54 0.000164466 129.0 (m) DEBRIS
CZ-6A DEB LEO 2024-11-07 23:41:56 0.0001366622 778.0 (m) DEBRIS
COSMOS 2251 DEB LEO 2024-09-26 05:57:31 0.0001970919 580.0 (m) DEBRIS
COSMOS 2251 DEB LEO 2024-09-24 21:23:58 0.0003892679 180.0 (m) DEBRIS

Associated space launch

Military communications satellite. Destroyed in a collision with Iridium 33.

COSMOS 2251 DEB was lifted into orbit during the mission ‘Kosmos-3M | Strela-2M 51’, on board a Kosmos-3M space rocket.

The launch took place on June 16, 1993, 4:17 a.m. from 132/1 (132L).

For more information about the launch, click the button.

Launch to space Kosmos-3M | Strela-2M 51
Kosmos-3M | Strela-2M 51

Agency: N/A

Status: Launch Successful

Launch date: June 16, 1993, 4:17 a.m. UTC

Rocket: Kosmos-3M

Launch pad: 132/1 (132L)

Location: Plesetsk Cosmodrome, Russian Federation

...

Latest news about this satellite

There are no fresh news available about this satellite. Check back as we update our databases every day.


Newsletter sign-up

Weekly statistics, charts and insights to help you stay on top of the space industry.